Location: Spruce Knob
(38.6995°N, 79.5330°W)
Time: 23:56:55
(UTC-04:00)

VELOX 1 - Visible Passes

Search period start: 28 March 2023 00:00
Search period end: 07 April 2023 00:00
Orbit: 618 x 633 km, 98.4° (Epoch: 28 March)

Date Brightness Start Highest point End Pass type
(mag) Time Alt. Az. Time Alt. Az. Time Alt. Az.
28 Mar ? 06:25:08 10° SE 06:29:16 44° ENE 06:33:24 10° N visible
29 Mar ? 20:09:15 10° N 20:13:24 48° WNW 20:17:33 10° SSW visible
30 Mar ? 05:30:27 10° ENE 05:31:31 11° ENE 05:32:35 10° NE visible
30 Mar ? 20:28:28 10° N 20:32:14 30° WNW 20:36:00 10° SW visible
31 Mar ? 05:47:26 10° ESE 05:50:13 17° ENE 05:53:01 10° NNE visible
31 Mar ? 20:47:55 10° NNW 20:51:01 20° WNW 20:54:06 10° WSW visible
01 Apr ? 06:05:22 10° SE 06:08:58 26° ENE 06:12:35 10° NNE visible
01 Apr ? 21:07:51 10° NW 21:09:43 13° WNW 21:11:34 10° W visible
02 Apr ? 06:23:41 10° SE 06:27:45 41° ENE 06:31:50 10° N visible
03 Apr ? 20:07:34 10° N 20:11:46 52° WNW 20:15:57 10° SSW visible
04 Apr ? 20:26:41 10° N 20:30:32 32° WNW 20:34:22 10° SW visible
05 Apr ? 05:45:55 10° ESE 05:48:30 16° ENE 05:51:06 10° NNE visible
05 Apr ? 20:45:59 10° NNW 20:49:14 21° WNW 20:52:27 10° WSW visible
06 Apr ? 06:03:41 10° ESE 06:07:10 24° ENE 06:10:39 10° NNE visible
06 Apr ? 21:05:43 10° NW 21:07:52 14° WNW 21:10:00 10° W visible
